STARLINK-3363, 51135

Orbit data source: Space-Track

STARLINK-3363, 51135 is a payload satellite owned by SpaceX/Seattle (US) in LEO that was launched on Wed, 19 Jan 2022 UTC via an FALCON 9 launch vehicle from the Air Force Eastern Test Range (AFETR). Payload-class satellites include a variety of spacecraft equipped with specific instruments for various scientific and technological missions. These include communications satellites like Starlink; space stations such as the ISS; scientific satellites like the Hubble; Earth observation satellites from companies like Planet Labs, Umbra, and HawkEye 360; GPS; miniature CubeSats for education and research; and military/defense satellites.

Loading next visibility...
Identifier
51135, 2022-005AH
Orbit
LEO
Country
Flag of USUS
Related business
Manufacturer
SpaceX/Seattle
Mission
Operational Commercial Communications
Bus & Motor
STARLINK, Unknown motor
Mass
297 kg wet, ~275 kg dry
Launch date (UTC)
2022-01-19 (4 years ago)
Launch vehicle
FALCON 9
Launch site
Air Force Eastern Test Range (AFETR)
Object type
Payload
Rocket body
Debris
Shape & HBR
Box + 1 Pan, 10.1 m
Radar Cross Section
13.562 m², Large (>1 m²)

Expand to show TLE details & history
Last TLE update: 8 hours ago

TLE from 8 hours ago
0 STARLINK-3363
1 51135U 22005AH  26094.28614186  .00000147  00000-0  27315-4 0  9995
2 51135  53.2179 184.1085 0001383 103.1074 257.0072 15.08839368232597
Epoch: 2026-04-04T06:52Z
TLE epoch observation values (Epoch: 2026-04-04T06:52:02.656Z)
Latitude
-0.00008°
Longitude
-111.51072°
Altitude
540.858 km
Speed
7.593 km/s
True Right ascension
12h 16m 26s
True Declination
0° 00' 00"
Sunlit
Object was in full shadow at epoch
Visualization orbit readout
Latitude
Unknown
Longitude
Unknown
Altitude
Unknown
Speed
Unknown
Apparent Right ascension
Unknown
Apparent Declination
Unknown
Sunlit
N/A
Visualization observer readout
Local Sidereal Time
20:40:16
Azimuth
Unknown
Elevation
Unknown
Doppler factor
Unknown
Orbital elements
Apogee altitude
540.947 km
Perigee altitude
539.033 km
Semi-major axis
6,918.127 km
Eccentricity
0.00014
Inclination
53.2179°
RAAN
184.1085°
Arg. of periapsis
103.1074°
True anomaly
256.99176°
Mean anomaly
257.0072°
Eccentric anomaly
256.99948°
Mean motion
3.7719 °/min
Orbital period
95.44 mins
BSTAR
0.000027315
Loading maneuver chart data...
Computing Atmospheric mass density...
Loading historical data...
Loading historical data...
Loading historical data...
Loading historical data...
Loading historical data...
Loading historical data...
Loading historical data...

Documentation

Showing up to 5 results
|